| time (UTC) | temp F | wind direction | speed MPH | gust MPH | rain 1hr in | rain 24hr in | rain mn in | humidity % | barometer mb |
| 20260901104639 | 68 | 215 | 0.0 | 2.0 | 0.00 | 0.00 | 0.00 | 84 | 1017.6 |
| 20260901104125 | 68 | 215 | 0.0 | 4.0 | 0.00 | 0.00 | 0.00 | 85 | 1017.5 |
| 20260901103617 | 68 | 215 | 1.0 | 4.0 | 0.00 | 0.00 | 0.00 | 85 | 1017.4 |
| 20260901103131 | 68 | 214 | 1.0 | 2.0 | 0.00 | 0.00 | 0.00 | 85 | 1017.3 |
| 20260901102619 | 68 | 214 | 0.0 | 1.0 | 0.00 | 0.00 | 0.00 | 85 | 1017.3 |
| 20260901102133 | 68 | 214 | 0.0 | 0.0 | 0.00 | 0.00 | 0.00 | 85 | 1017.2 |
| 20260901101620 | 68 | 214 | 0.0 | 2.0 | 0.00 | 0.00 | 0.00 | 85 | 1017.1 |
| 20260901101132 | 68 | 214 | 0.0 | 3.0 | 0.00 | 0.00 | 0.00 | 85 | 1017.1 |
| 20260901100617 | 68 | 214 | 0.0 | 2.0 | 0.00 | 0.00 | 0.00 | 85 | 1017.1 |
| 20260901100131 | 68 | 214 | 0.0 | 0.0 | 0.00 | 0.00 | 0.00 | 85 | 1017.1 |
| 20260901095618 | 68 | 212 | 0.0 | 0.0 | 0.00 | 0.00 | 0.00 | 84 | 1017.2 |
| 20260901095130 | 68 | 211 | 0.0 | 0.0 | 0.00 | 0.00 | 0.00 | 84 | 1017.2 |
| 20260901094625 | 67 | 212 | 0.0 | 0.0 | 0.00 | 0.00 | 0.00 | 84 | 1017.3 |
| 20260901094141 | 67 | 212 | 0.0 | 0.0 | 0.00 | 0.00 | 0.00 | 84 | 1017.4 |
| 20260901093654 | 68 | 212 | 0.0 | 0.0 | 0.00 | 0.00 | 0.00 | 84 | 1017.4 |
| 20260901093120 | 68 | 212 | 0.0 | 0.0 | 0.00 | 0.00 | 0.00 | 84 | 1017.5 |
| 20260901092656 | 68 | 212 | 0.0 | 0.0 | 0.00 | 0.00 | 0.00 | 84 | 1017.4 |
| 20260901092120 | 67 | 212 | 0.0 | 0.0 | 0.00 | 0.00 | 0.00 | 84 | 1017.4 |
| 20260901091634 | 67 | 212 | 0.0 | 0.0 | 0.00 | 0.00 | 0.00 | 84 | 1017.5 |
| 20260901091140 | 67 | 212 | 0.0 | 0.0 | 0.00 | 0.00 | 0.00 | 84 | 1017.4 |
| 20260901090633 | 67 | 212 | 0.0 | 0.0 | 0.00 | 0.01 | 0.00 | 84 | 1017.4 |
| 20260901090121 | 67 | 212 | 0.0 | 0.0 | 0.00 | 0.01 | 0.00 | 84 | 1017.6 |
| 20260901085634 | 67 | 212 | 0.0 | 0.0 | 0.00 | 0.01 | 0.00 | 84 | 1017.5 |
| 20260901085120 | 67 | 212 | 0.0 | 0.0 | 0.00 | 0.01 | 0.00 | 84 | 1017.5 |
| 20260901084635 | 67 | 212 | 0.0 | 0.0 | 0.00 | 0.01 | 0.00 | 84 | 1017.6 |
| 20260901084124 | 67 | 212 | 0.0 | 0.0 | 0.00 | 0.01 | 0.00 | 84 | 1017.6 |
| 20260901083618 | 68 | 212 | 0.0 | 0.0 | 0.00 | 0.01 | 0.00 | 84 | 1017.6 |
| 20260901083127 | 68 | 212 | 0.0 | 0.0 | 0.00 | 0.01 | 0.00 | 84 | 1017.6 |
| 20260901082622 | 68 | 212 | 0.0 | 0.0 | 0.00 | 0.01 | 0.00 | 84 | 1017.6 |
| 20260901082132 | 67 | 212 | 0.0 | 0.0 | 0.00 | 0.01 | 0.00 | 84 | 1017.5 |
| 20260901081618 | 68 | 212 | 0.0 | 0.0 | 0.00 | 0.01 | 0.00 | 84 | 1017.5 |
| 20260901081134 | 68 | 212 | 0.0 | 0.0 | 0.00 | 0.01 | 0.00 | 84 | 1017.6 |
| 20260901080627 | 68 | 212 | 0.0 | 0.0 | 0.00 | 0.01 | 0.00 | 84 | 1017.6 |
| 20260901080120 | 68 | 212 | 0.0 | 0.0 | 0.00 | 0.01 | 0.00 | 84 | 1017.6 |
| 20260901075635 | 68 | 212 | 0.0 | 0.0 | 0.00 | 0.01 | 0.00 | 84 | 1017.6 |
| 20260901075119 | 68 | 212 | 0.0 | 0.0 | 0.00 | 0.01 | 0.00 | 84 | 1017.5 |
| 20260901074633 | 68 | 212 | 0.0 | 0.0 | 0.00 | 0.01 | 0.00 | 84 | 1017.7 |
| 20260901074122 | 68 | 212 | 0.0 | 0.0 | 0.00 | 0.01 | 0.00 | 84 | 1017.7 |
| 20260901073636 | 68 | 212 | 0.0 | 0.0 | 0.00 | 0.01 | 0.00 | 84 | 1017.7 |
| 20260901073123 | 68 | 212 | 0.0 | 0.0 | 0.00 | 0.01 | 0.00 | 84 | 1017.6 |
| 20260901072658 | 68 | 212 | 0.0 | 0.0 | 0.00 | 0.01 | 0.00 | 84 | 1017.6 |
| 20260901072144 | 68 | 211 | 0.0 | 0.0 | 0.00 | 0.01 | 0.00 | 84 | 1017.7 |
| 20260901071637 | 68 | 211 | 0.0 | 0.0 | 0.00 | 0.01 | 0.00 | 84 | 1017.7 |
| 20260901071123 | 68 | 212 | 0.0 | 0.0 | 0.00 | 0.01 | 0.00 | 84 | 1017.7 |
| 20260901070617 | 68 | 212 | 0.0 | 0.0 | 0.00 | 0.01 | 0.00 | 84 | 1017.7 |
| 20260901070132 | 68 | 212 | 0.0 | 0.0 | 0.00 | 0.01 | 0.00 | 84 | 1017.7 |
| 20260901065621 | 68 | 212 | 0.0 | 0.0 | 0.00 | 0.01 | 0.00 | 84 | 1017.7 |
| 20260901065137 | 68 | 212 | 0.0 | 0.0 | 0.00 | 0.01 | 0.00 | 84 | 1017.7 |
| 20260901064623 | 68 | 212 | 0.0 | 0.0 | 0.00 | 0.01 | 0.00 | 84 | 1017.7 |
| 20260901064137 | 68 | 212 | 0.0 | 0.0 | 0.00 | 0.01 | 0.00 | 84 | 1017.9 |
| 20260901063623 | 68 | 212 | 0.0 | 0.0 | 0.00 | 0.01 | 0.00 | 84 | 1017.9 |
| 20260901063118 | 68 | 212 | 0.0 | 1.0 | 0.00 | 0.01 | 0.00 | 84 | 1017.8 |
| 20260901062630 | 68 | 212 | 0.0 | 2.0 | 0.00 | 0.01 | 0.00 | 84 | 1017.9 |
| 20260901062137 | 68 | 212 | 1.0 | 3.0 | 0.00 | 0.01 | 0.00 | 84 | 1017.9 |
| 20260901061624 | 68 | 211 | 1.0 | 3.0 | 0.00 | 0.01 | 0.00 | 84 | 1017.9 |
| 20260901061138 | 68 | 212 | 1.0 | 2.0 | 0.00 | 0.01 | 0.00 | 84 | 1017.9 |
| 20260901060624 | 68 | 211 | 1.0 | 2.0 | 0.00 | 0.01 | 0.00 | 84 | 1018.0 |
| 20260901060137 | 68 | 211 | 0.0 | 2.0 | 0.00 | 0.01 | 0.00 | 84 | 1018.0 |
| 20260901055624 | 68 | 211 | 1.0 | 2.0 | 0.00 | 0.01 | 0.00 | 84 | 1018.1 |
| 20260901055137 | 68 | 212 | 0.0 | 2.0 | 0.00 | 0.01 | 0.00 | 84 | 1018.2 |
| 20260901054631 | 68 | 212 | 0.0 | 1.0 | 0.00 | 0.01 | 0.00 | 84 | 1018.3 |
| 20260901054141 | 68 | 212 | 0.0 | 2.0 | 0.00 | 0.01 | 0.00 | 84 | 1018.3 |
| 20260901053655 | 68 | 212 | 0.0 | 2.0 | 0.00 | 0.01 | 0.00 | 84 | 1018.2 |
| 20260901053121 | 68 | 213 | 1.0 | 4.0 | 0.00 | 0.01 | 0.00 | 84 | 1018.3 |
| 20260901052634 | 67 | 213 | 2.0 | 4.0 | 0.00 | 0.01 | 0.00 | 84 | 1018.3 |
| 20260901052120 | 67 | 218 | 0.0 | 0.0 | 0.00 | 0.01 | 0.00 | 84 | 1018.4 |
| 20260901051615 | 67 | 218 | 0.0 | 0.0 | 0.00 | 0.01 | 0.00 | 83 | 1018.3 |
| 20260901051132 | 68 | 218 | 0.0 | 0.0 | 0.00 | 0.01 | 0.00 | 83 | 1018.3 |
| 20260901050639 | 68 | 218 | 0.0 | 0.0 | 0.00 | 0.01 | 0.00 | 83 | 1018.4 |
| 20260901050125 | 68 | 218 | 0.0 | 0.0 | 0.00 | 0.01 | 0.00 | 83 | 1018.4 |
| 20260901045638 | 68 | 218 | 0.0 | 0.0 | 0.00 | 0.01 | 0.00 | 83 | 1018.4 |
| 20260901045123 | 68 | 218 | 0.0 | 0.0 | 0.00 | 0.01 | 0.00 | 83 | 1018.4 |
| 20260901044653 | 68 | 218 | 0.0 | 0.0 | 0.00 | 0.01 | 0.00 | 83 | 1018.4 |
| 20260901044129 | 68 | 218 | 0.0 | 0.0 | 0.00 | 0.01 | 0.00 | 83 | 1018.4 |
| 20260901043622 | 68 | 218 | 0.0 | 0.0 | 0.00 | 0.01 | 0.00 | 83 | 1018.3 |
| 20260901043115 | 68 | 218 | 0.0 | 0.0 | 0.00 | 0.01 | 0.00 | 83 | 1018.4 |
| 20260901042631 | 69 | 218 | 0.0 | 0.0 | 0.00 | 0.01 | 0.00 | 83 | 1018.2 |
| 20260901042124 | 69 | 218 | 0.0 | 0.0 | 0.00 | 0.01 | 0.00 | 83 | 1018.1 |
| 20260901041619 | 69 | 218 | 0.0 | 0.0 | 0.00 | 0.01 | 0.00 | 83 | 1018.1 |
| 20260901041135 | 69 | 218 | 0.0 | 0.0 | 0.00 | 0.01 | 0.00 | 83 | 1018.0 |
| 20260901040622 | 69 | 218 | 0.0 | 0.0 | 0.00 | 0.01 | 0.00 | 83 | 1018.1 |
| 20260901040115 | 69 | 218 | 0.0 | 0.0 | 0.00 | 0.01 | 0.00 | 83 | 1018.2 |
| 20260901035624 | 69 | 218 | 0.0 | 0.0 | 0.00 | 0.01 | 0.00 | 83 | 1018.1 |
| 20260901035157 | 70 | 218 | 0.0 | 0.0 | 0.00 | 0.01 | 0.00 | 83 | 1018.2 |
| 20260901034623 | 70 | 218 | 0.0 | 0.0 | 0.00 | 0.01 | 0.00 | 83 | 1018.2 |
| 20260901034139 | 70 | 218 | 0.0 | 0.0 | 0.00 | 0.01 | 0.00 | 83 | 1018.3 |
| 20260901033633 | 70 | 218 | 0.0 | 0.0 | 0.00 | 0.01 | 0.00 | 83 | 1018.3 |
| 20260901033122 | 70 | 218 | 0.0 | 0.0 | 0.00 | 0.01 | 0.00 | 83 | 1018.3 |
| 20260901032638 | 70 | 218 | 0.0 | 0.0 | 0.00 | 0.01 | 0.00 | 83 | 1018.3 |
| 20260901032131 | 70 | 218 | 0.0 | 0.0 | 0.00 | 0.01 | 0.00 | 83 | 1018.3 |
| 20260901031620 | 70 | 218 | 0.0 | 0.0 | 0.00 | 0.01 | 0.00 | 83 | 1018.4 |
| 20260901031137 | 70 | 218 | 0.0 | 0.0 | 0.00 | 0.01 | 0.00 | 83 | 1018.5 |
| 20260901030623 | 70 | 218 | 0.0 | 0.0 | 0.00 | 0.03 | 0.00 | 83 | 1018.5 |
| 20260901030136 | 70 | 218 | 0.0 | 0.0 | 0.00 | 0.03 | 0.00 | 83 | 1018.5 |
| 20260901025624 | 70 | 218 | 0.0 | 2.0 | 0.00 | 0.03 | 0.00 | 83 | 1018.6 |
| 20260901025154 | 70 | 218 | 0.0 | 2.0 | 0.00 | 0.03 | 0.00 | 83 | 1018.6 |
| 20260901024641 | 70 | 218 | 0.0 | 2.0 | 0.00 | 0.03 | 0.00 | 83 | 1018.6 |
| 20260901024128 | 70 | 218 | 0.0 | 4.0 | 0.00 | 0.03 | 0.00 | 83 | 1018.7 |
| 20260901023622 | 70 | 218 | 2.0 | 4.0 | 0.00 | 0.03 | 0.00 | 83 | 1018.7 |
| 20260901023134 | 70 | 223 | 0.0 | 2.0 | 0.00 | 0.03 | 0.00 | 83 | 1018.8 |
| 20260901022623 | 70 | 223 | 0.0 | 0.0 | 0.00 | 0.03 | 0.00 | 83 | 1018.8 |
| 20260901022157 | 70 | 223 | 0.0 | 0.0 | 0.00 | 0.03 | 0.00 | 83 | 1018.8 |
| 20260901021622 | 70 | 223 | 0.0 | 0.0 | 0.00 | 0.03 | 0.00 | 83 | 1018.8 |
| 20260901021119 | 70 | 223 | 0.0 | 0.0 | 0.00 | 0.03 | 0.00 | 83 | 1018.8 |
| 20260901020634 | 70 | 223 | 0.0 | 0.0 | 0.00 | 0.03 | 0.00 | 83 | 1018.8 |
| 20260901020122 | 70 | 223 | 0.0 | 0.0 | 0.00 | 0.03 | 0.00 | 83 | 1018.7 |
| 20260901015636 | 70 | 223 | 0.0 | 0.0 | 0.00 | 0.03 | 0.00 | 82 | 1018.8 |
| 20260901015122 | 70 | 223 | 0.0 | 0.0 | 0.00 | 0.03 | 0.00 | 82 | 1018.8 |
| 20260901014617 | 70 | 223 | 0.0 | 0.0 | 0.00 | 0.03 | 0.00 | 83 | 1018.9 |
| 20260901014133 | 70 | 223 | 0.0 | 0.0 | 0.00 | 0.03 | 0.00 | 83 | 1018.8 |
| 20260901013620 | 70 | 223 | 0.0 | 0.0 | 0.00 | 0.03 | 0.00 | 83 | 1018.9 |
| 20260901013136 | 70 | 223 | 0.0 | 0.0 | 0.00 | 0.03 | 0.00 | 82 | 1018.9 |
| 20260901012625 | 70 | 223 | 0.0 | 0.0 | 0.00 | 0.03 | 0.00 | 82 | 1018.8 |
| 20260901012118 | 70 | 223 | 0.0 | 0.0 | 0.00 | 0.03 | 0.00 | 82 | 1018.8 |
| 20260901011632 | 70 | 223 | 0.0 | 0.0 | 0.00 | 0.03 | 0.00 | 82 | 1018.8 |
| 20260901011120 | 70 | 223 | 0.0 | 0.0 | 0.00 | 0.03 | 0.00 | 82 | 1018.8 |
| 20260901010635 | 70 | 223 | 0.0 | 0.0 | 0.00 | 0.03 | 0.00 | 82 | 1018.7 |
| 20260901010123 | 71 | 223 | 0.0 | 0.0 | 0.00 | 0.03 | 0.00 | 82 | 1018.6 |
| 20260901005637 | 71 | 223 | 0.0 | 0.0 | 0.00 | 0.03 | 0.00 | 82 | 1018.5 |
| 20260901005123 | 71 | 223 | 0.0 | 0.0 | 0.00 | 0.03 | 0.00 | 82 | 1018.5 |
| 20260901004633 | 71 | 223 | 0.0 | 0.0 | 0.00 | 0.03 | 0.00 | 82 | 1018.4 |
| 20260901004121 | 71 | 223 | 0.0 | 0.0 | 0.00 | 0.03 | 0.00 | 82 | 1018.3 |
| 20260901003614 | 71 | 223 | 0.0 | 0.0 | 0.00 | 0.03 | 0.00 | 82 | 1018.3 |
| 20260901003129 | 71 | 225 | 0.0 | 0.0 | 0.00 | 0.03 | 0.00 | 82 | 1018.3 |
| 20260901002625 | 72 | 225 | 0.0 | 0.0 | 0.00 | 0.03 | 0.00 | 82 | 1018.1 |
| 20260901002117 | 72 | 225 | 0.0 | 1.0 | 0.00 | 0.03 | 0.00 | 82 | 1018.0 |
| 20260901001631 | 73 | 225 | 0.0 | 1.0 | 0.00 | 0.03 | 0.00 | 82 | 1018.0 |
| 20260901001117 | 73 | 224 | 0.0 | 1.0 | 0.00 | 0.03 | 0.00 | 81 | 1017.9 |
| 20260901000620 | 73 | 224 | 0.0 | 1.0 | 0.00 | 0.03 | 0.00 | 82 | 1018.0 |
| 20260901000135 | 73 | 224 | 0.0 | 0.0 | 0.00 | 0.03 | 0.00 | 81 | 1018.1 |
| 20260831235624 | 74 | 224 | 0.0 | 0.0 | 0.00 | 0.03 | 0.00 | 81 | 1018.0 |
| 20260831235118 | 74 | 225 | 0.0 | 0.0 | 0.00 | 0.03 | 0.00 | 81 | 1018.0 |
| 20260831234635 | 75 | 225 | 0.0 | 0.0 | 0.00 | 0.03 | 0.00 | 81 | 1018.0 |
| 20260831234142 | 75 | 225 | 0.0 | 0.0 | 0.00 | 0.03 | 0.00 | 81 | 1018.0 |
| 20260831233634 | 76 | 225 | 0.0 | 0.0 | 0.00 | 0.03 | 0.00 | 81 | 1017.9 |
| 20260831233117 | 76 | 225 | 0.0 | 0.0 | 0.00 | 0.03 | 0.00 | 81 | 1017.9 |
| 20260831232632 | 76 | 225 | 0.0 | 0.0 | 0.00 | 0.03 | 0.00 | 81 | 1018.0 |
| 20260831232139 | 77 | 225 | 0.0 | 0.0 | 0.00 | 0.03 | 0.00 | 80 | 1017.9 |
| 20260831231624 | 77 | 225 | 0.0 | 0.0 | 0.00 | 0.03 | 0.00 | 80 | 1017.9 |
| 20260831231119 | 77 | 225 | 0.0 | 0.0 | 0.00 | 0.03 | 0.00 | 80 | 1017.9 |
| 20260831230633 | 77 | 225 | 0.0 | 0.0 | 0.00 | 0.03 | 0.00 | 80 | 1018.0 |
| 20260831230141 | 78 | 225 | 0.0 | 0.0 | 0.00 | 0.03 | 0.00 | 80 | 1017.9 |
| 20260831225615 | 78 | 224 | 0.0 | 0.0 | 0.00 | 0.03 | 0.00 | 80 | 1017.8 |
| 20260831225124 | 78 | 224 | 0.0 | 0.0 | 0.00 | 0.03 | 0.00 | 80 | 1017.9 |
| 20260831224619 | 79 | 224 | 0.0 | 0.0 | 0.00 | 0.03 | 0.00 | 80 | 1017.9 |
| 20260831224115 | 79 | 224 | 0.0 | 0.0 | 0.00 | 0.03 | 0.00 | 79 | 1018.0 |
| 20260831223629 | 79 | 225 | 0.0 | 0.0 | 0.00 | 0.03 | 0.00 | 79 | 1018.0 |
| 20260831223114 | 79 | 225 | 0.0 | 0.0 | 0.00 | 0.03 | 0.00 | 79 | 1018.1 |
| 20260831222629 | 79 | 225 | 0.0 | 0.0 | 0.00 | 0.03 | 0.00 | 79 | 1018.2 |
| 20260831222123 | 79 | 225 | 0.0 | 0.0 | 0.00 | 0.03 | 0.00 | 79 | 1018.2 |
| 20260831221618 | 79 | 225 | 0.0 | 0.0 | 0.00 | 0.03 | 0.00 | 79 | 1018.2 |
| 20260831221135 | 79 | 225 | 0.0 | 0.0 | 0.00 | 0.03 | 0.00 | 79 | 1018.2 |
| 20260831220622 | 79 | 225 | 0.0 | 0.0 | 0.00 | 0.03 | 0.00 | 79 | 1018.4 |
| 20260831220137 | 79 | 225 | 0.0 | 0.0 | 0.00 | 0.03 | 0.00 | 79 | 1018.5 |
| 20260831215625 | 80 | 225 | 0.0 | 0.0 | 0.00 | 0.03 | 0.00 | 79 | 1018.4 |
| 20260831215117 | 80 | 225 | 0.0 | 0.0 | 0.00 | 0.03 | 0.00 | 78 | 1018.5 |
| 20260831214653 | 80 | 225 | 0.0 | 2.0 | 0.00 | 0.03 | 0.00 | 77 | 1018.5 |
| 20260831214119 | 80 | 225 | 0.0 | 2.0 | 0.00 | 0.03 | 0.00 | 77 | 1018.5 |
| 20260831213634 | 80 | 226 | 0.0 | 2.0 | 0.00 | 0.03 | 0.00 | 77 | 1018.6 |
| 20260831213121 | 80 | 223 | 0.0 | 1.0 | 0.00 | 0.03 | 0.00 | 77 | 1018.5 |
| 20260831212638 | 80 | 223 | 0.0 | 3.0 | 0.00 | 0.03 | 0.00 | 77 | 1018.5 |
| 20260831212124 | 81 | 223 | 1.0 | 3.0 | 0.00 | 0.03 | 0.00 | 76 | 1018.5 |
| 20260831211618 | 81 | 226 | 0.0 | 0.0 | 0.00 | 0.03 | 0.00 | 77 | 1018.5 |
| 20260831211134 | 79 | 224 | 0.0 | 0.0 | 0.00 | 0.03 | 0.00 | 79 | 1018.5 |
| 20260831210620 | 79 | 224 | 0.0 | 0.0 | 0.00 | 0.03 | 0.00 | 79 | 1018.6 |
| 20260831210116 | 79 | 224 | 0.0 | 0.0 | 0.00 | 0.03 | 0.00 | 78 | 1018.6 |
| 20260831205633 | 79 | 224 | 0.0 | 0.0 | 0.00 | 0.03 | 0.00 | 78 | 1018.6 |
| 20260831205119 | 79 | 224 | 0.0 | 0.0 | 0.00 | 0.03 | 0.00 | 77 | 1018.7 |
| 20260831204633 | 80 | 224 | 0.0 | 6.0 | 0.00 | 0.03 | 0.00 | 77 | 1018.6 |
| 20260831204120 | 80 | 225 | 0.0 | 6.0 | 0.00 | 0.03 | 0.00 | 76 | 1018.7 |
| 20260831203633 | 80 | 218 | 1.0 | 3.0 | 0.00 | 0.03 | 0.00 | 77 | 1018.8 |
| 20260831203118 | 81 | 223 | 1.0 | 6.0 | 0.00 | 0.03 | 0.00 | 76 | 1018.8 |
| 20260831202630 | 81 | 225 | 2.0 | 6.0 | 0.00 | 0.03 | 0.00 | 76 | 1018.9 |
| 20260831202124 | 81 | 186 | 0.0 | 4.0 | 0.00 | 0.03 | 0.00 | 75 | 1018.8 |
| 20260831201617 | 81 | 185 | 0.0 | 7.0 | 0.00 | 0.03 | 0.00 | 76 | 1018.7 |
| 20260831201151 | 81 | 226 | 1.0 | 7.0 | 0.00 | 0.03 | 0.00 | 76 | 1018.8 |
| 20260831200623 | 81 | 230 | 2.0 | 5.0 | 0.00 | 0.03 | 0.00 | 76 | 1018.9 |
| 20260831200117 | 81 | 235 | 2.0 | 5.0 | 0.00 | 0.03 | 0.00 | 76 | 1018.9 |
| 20260831195634 | 81 | 224 | 1.0 | 5.0 | 0.00 | 0.03 | 0.00 | 75 | 1018.9 |
| 20260831195120 | 81 | 227 | 0.0 | 4.0 | 0.00 | 0.03 | 0.00 | 76 | 1018.9 |
| 20260831194635 | 81 | 226 | 1.0 | 4.0 | 0.00 | 0.03 | 0.00 | 77 | 1018.9 |
| 20260831194121 | 80 | 229 | 1.0 | 3.0 | 0.00 | 0.03 | 0.00 | 77 | 1019.0 |
| 20260831193635 | 80 | 228 | 0.0 | 3.0 | 0.00 | 0.03 | 0.00 | 77 | 1019.0 |
| 20260831193122 | 80 | 229 | 1.0 | 3.0 | 0.00 | 0.03 | 0.00 | 77 | 1019.1 |
| 20260831192636 | 80 | 230 | 1.0 | 5.0 | 0.00 | 0.03 | 0.00 | 76 | 1019.1 |
| 20260831192141 | 80 | 218 | 0.0 | 4.0 | 0.00 | 0.03 | 0.00 | 77 | 1019.3 |
| 20260831191634 | 80 | 228 | 0.0 | 4.0 | 0.00 | 0.03 | 0.00 | 77 | 1019.3 |
| 20260831191123 | 79 | 228 | 1.0 | 6.0 | 0.00 | 0.03 | 0.00 | 78 | 1019.4 |
| 20260831190637 | 79 | 218 | 3.0 | 6.0 | 0.00 | 0.03 | 0.00 | 78 | 1019.5 |
| 20260831190124 | 79 | 224 | 1.0 | 3.0 | 0.00 | 0.03 | 0.00 | 78 | 1019.5 |
| 20260831185618 | 78 | 216 | 0.0 | 0.0 | 0.00 | 0.03 | 0.00 | 78 | 1019.5 |
| 20260831185131 | 78 | 232 | 0.0 | 1.0 | 0.00 | 0.03 | 0.00 | 79 | 1019.6 |
| 20260831184619 | 77 | 232 | 0.0 | 1.0 | 0.00 | 0.03 | 0.00 | 79 | 1019.7 |
| 20260831184133 | 77 | 232 | 0.0 | 3.0 | 0.00 | 0.03 | 0.00 | 79 | 1019.7 |
| 20260831183639 | 77 | 232 | 1.0 | 3.0 | 0.00 | 0.03 | 0.00 | 79 | 1019.7 |
| 20260831183131 | 77 | 235 | 1.0 | 4.0 | 0.00 | 0.03 | 0.00 | 79 | 1019.8 |
| 20260831182639 | 77 | 236 | 2.0 | 4.0 | 0.00 | 0.03 | 0.00 | 79 | 1019.7 |
| 20260831182124 | 77 | 221 | 2.0 | 4.0 | 0.00 | 0.03 | 0.00 | 78 | 1019.7 |
| 20260831181618 | 77 | 220 | 2.0 | 5.0 | 0.00 | 0.03 | 0.00 | 78 | 1019.7 |
| 20260831181153 | 77 | 221 | 1.0 | 5.0 | 0.00 | 0.03 | 0.00 | 79 | 1019.7 |
| 20260831180619 | 77 | 209 | 1.0 | 4.0 | 0.00 | 0.03 | 0.00 | 79 | 1019.7 |
| 20260831180134 | 78 | 228 | 1.0 | 5.0 | 0.00 | 0.03 | 0.00 | 78 | 1019.8 |
| 20260831175621 | 78 | 218 | 0.0 | 5.0 | 0.00 | 0.03 | 0.00 | 78 | 1019.8 |
| 20260831175134 | 78 | 219 | 1.0 | 4.0 | 0.00 | 0.03 | 0.00 | 78 | 1019.8 |
| 20260831174621 | 78 | 202 | 2.0 | 4.0 | 0.00 | 0.03 | 0.00 | 78 | 1019.9 |
| 20260831174138 | 78 | 212 | 1.0 | 5.0 | 0.00 | 0.03 | 0.00 | 78 | 1019.8 |
| 20260831173620 | 78 | 194 | 3.0 | 5.0 | 0.00 | 0.03 | 0.00 | 78 | 1019.9 |
| 20260831173134 | 78 | 186 | 0.0 | 5.0 | 0.00 | 0.03 | 0.00 | 79 | 1020.0 |
| 20260831172623 | 77 | 187 | 2.0 | 6.0 | 0.00 | 0.03 | 0.00 | 79 | 1020.0 |
| 20260831172133 | 77 | 234 | 2.0 | 6.0 | 0.00 | 0.03 | 0.00 | 79 | 1020.0 |
| 20260831171619 | 76 | 216 | 0.0 | 2.0 | 0.00 | 0.03 | 0.00 | 79 | 1019.9 |
| 20260831171134 | 76 | 222 | 0.0 | 3.0 | 0.00 | 0.03 | 0.00 | 79 | 1020.0 |
| 20260831170636 | 76 | 222 | 0.0 | 2.0 | 0.00 | 0.03 | 0.00 | 80 | 1020.1 |
| 20260831170143 | 75 | 226 | 0.0 | 3.0 | 0.00 | 0.03 | 0.00 | 80 | 1020.2 |
| 20260831165630 | 75 | 228 | 1.0 | 3.0 | 0.00 | 0.03 | 0.00 | 79 | 1020.2 |
| 20260831165124 | 75 | 229 | 2.0 | 3.0 | 0.00 | 0.03 | 0.00 | 79 | 1020.3 |
| 20260831164617 | 75 | 233 | 0.0 | 2.0 | 0.00 | 0.03 | 0.00 | 79 | 1020.4 |
| 20260831164133 | 75 | 234 | 0.0 | 4.0 | 0.00 | 0.03 | 0.00 | 79 | 1020.3 |
| 20260831163645 | 76 | 235 | 1.0 | 5.0 | 0.00 | 0.03 | 0.00 | 79 | 1020.3 |
| 20260831163137 | 76 | 222 | 4.0 | 5.0 | 0.00 | 0.03 | 0.00 | 79 | 1020.4 |
| 20260831162624 | 76 | 160 | 1.0 | 4.0 | 0.00 | 0.03 | 0.00 | 79 | 1020.5 |
| 20260831162118 | 76 | 197 | 2.0 | 4.0 | 0.00 | 0.03 | 0.00 | 79 | 1020.6 |
| 20260831161633 | 75 | 217 | 1.0 | 5.0 | 0.00 | 0.03 | 0.00 | 79 | 1020.6 |
| 20260831161120 | 75 | 234 | 2.0 | 7.0 | 0.00 | 0.03 | 0.00 | 79 | 1020.6 |
| 20260831160633 | 75 | 216 | 5.0 | 7.0 | 0.00 | 0.03 | 0.00 | 79 | 1020.6 |
| 20260831160120 | 75 | 224 | 3.0 | 6.0 | 0.00 | 0.03 | 0.00 | 79 | 1020.6 |
| 20260831155636 | 75 | 232 | 1.0 | 5.0 | 0.00 | 0.03 | 0.00 | 79 | 1020.6 |
| 20260831155141 | 75 | 186 | 1.0 | 6.0 | 0.00 | 0.03 | 0.00 | 79 | 1020.6 |
| 20260831154615 | 75 | 191 | 2.0 | 6.0 | 0.00 | 0.03 | 0.00 | 79 | 1020.6 |
| 20260831154133 | 74 | 194 | 1.0 | 4.0 | 0.00 | 0.03 | 0.00 | 80 | 1020.6 |
| 20260831153618 | 74 | 218 | 0.0 | 4.0 | 0.00 | 0.03 | 0.00 | 80 | 1020.6 |
| 20260831153153 | 74 | 224 | 0.0 | 0.0 | 0.00 | 0.03 | 0.00 | 80 | 1020.6 |
| 20260831152620 | 74 | 222 | 0.0 | 2.0 | 0.00 | 0.03 | 0.00 | 80 | 1020.7 |
| 20260831152133 | 73 | 223 | 0.0 | 3.0 | 0.00 | 0.03 | 0.00 | 81 | 1020.7 |
| 20260831151619 | 73 | 225 | 1.0 | 3.0 | 0.00 | 0.03 | 0.00 | 80 | 1020.7 |
| 20260831151150 | 73 | 226 | 1.0 | 5.0 | 0.00 | 0.03 | 0.00 | 80 | 1020.6 |
| 20260831150623 | 73 | 214 | 2.0 | 5.0 | 0.00 | 0.03 | 0.00 | 81 | 1020.7 |
| 20260831150115 | 73 | 207 | 0.0 | 2.0 | 0.00 | 0.03 | 0.00 | 81 | 1020.8 |
| 20260831145632 | 73 | 210 | 1.0 | 2.0 | 0.00 | 0.03 | 0.00 | 81 | 1020.9 |
| 20260831145144 | 72 | 216 | 0.0 | 0.0 | 0.00 | 0.03 | 0.00 | 81 | 1020.9 |
| 20260831144616 | 72 | 216 | 0.0 | 0.0 | 0.00 | 0.03 | 0.00 | 82 | 1021.1 |
| 20260831144132 | 72 | 216 | 0.0 | 0.0 | 0.00 | 0.03 | 0.00 | 82 | 1021.1 |
| 20260831143638 | 71 | 217 | 0.0 | 1.0 | 0.00 | 0.03 | 0.00 | 82 | 1021.0 |
| 20260831143123 | 70 | 218 | 0.0 | 3.0 | 0.00 | 0.03 | 0.00 | 83 | 1021.0 |
| 20260831142658 | 69 | 211 | 1.0 | 2.0 | 0.00 | 0.03 | 0.00 | 83 | 1021.1 |
| 20260831142123 | 69 | 206 | 0.0 | 2.0 | 0.00 | 0.03 | 0.00 | 83 | 1021.1 |
| 20260831141636 | 69 | 206 | 0.0 | 3.0 | 0.00 | 0.03 | 0.00 | 84 | 1021.0 |
| 20260831141125 | 69 | 205 | 1.0 | 3.0 | 0.00 | 0.03 | 0.00 | 84 | 1020.9 |
| 20260831140617 | 69 | 187 | 0.0 | 0.0 | 0.00 | 0.03 | 0.00 | 84 | 1020.9 |
| 20260831140132 | 69 | 193 | 0.0 | 0.0 | 0.00 | 0.03 | 0.00 | 84 | 1021.0 |
| 20260831135620 | 68 | 193 | 0.0 | 0.0 | 0.00 | 0.03 | 0.00 | 84 | 1021.0 |
| 20260831135133 | 68 | 193 | 0.0 | 0.0 | 0.00 | 0.03 | 0.00 | 85 | 1021.1 |
| 20260831134621 | 68 | 193 | 0.0 | 0.0 | 0.00 | 0.03 | 0.00 | 85 | 1021.1 |
| 20260831134136 | 68 | 193 | 0.0 | 0.0 | 0.00 | 0.03 | 0.00 | 85 | 1021.1 |
| 20260831133622 | 68 | 193 | 0.0 | 0.0 | 0.00 | 0.03 | 0.00 | 85 | 1021.0 |
| 20260831133138 | 68 | 193 | 0.0 | 0.0 | 0.00 | 0.03 | 0.00 | 85 | 1021.1 |
| 20260831132633 | 68 | 193 | 0.0 | 0.0 | 0.00 | 0.03 | 0.00 | 85 | 1021.0 |
| 20260831132120 | 67 | 193 | 0.0 | 0.0 | 0.00 | 0.03 | 0.00 | 85 | 1021.0 |
| 20260831131651 | 67 | 193 | 0.0 | 0.0 | 0.00 | 0.03 | 0.00 | 85 | 1020.9 |
| 20260831131140 | 67 | 193 | 0.0 | 0.0 | 0.00 | 0.03 | 0.00 | 85 | 1020.8 |
| 20260831130631 | 67 | 193 | 0.0 | 0.0 | 0.00 | 0.03 | 0.00 | 85 | 1020.9 |
| 20260831130117 | 67 | 193 | 0.0 | 0.0 | 0.00 | 0.03 | 0.00 | 85 | 1020.9 |
| 20260831125633 | 67 | 193 | 0.0 | 0.0 | 0.00 | 0.03 | 0.00 | 85 | 1020.9 |
| 20260831125119 | 67 | 193 | 0.0 | 0.0 | 0.00 | 0.03 | 0.00 | 85 | 1021.0 |
| 20260831124635 | 67 | 193 | 0.0 | 0.0 | 0.00 | 0.03 | 0.00 | 86 | 1021.0 |
| 20260831124123 | 67 | 193 | 0.0 | 0.0 | 0.00 | 0.03 | 0.00 | 86 | 1021.0 |
| 20260831123637 | 67 | 193 | 0.0 | 0.0 | 0.00 | 0.03 | 0.00 | 85 | 1021.0 |
| 20260831123124 | 66 | 193 | 0.0 | 0.0 | 0.00 | 0.03 | 0.00 | 85 | 1021.0 |
| 20260831122639 | 66 | 193 | 0.0 | 0.0 | 0.00 | 0.03 | 0.00 | 86 | 1020.9 |
| 20260831122125 | 67 | 150 | 0.0 | 0.0 | 0.00 | 0.03 | 0.00 | 86 | 1020.9 |
| 20260831121659 | 66 | 150 | 0.0 | 0.0 | 0.00 | 0.03 | 0.00 | 86 | 1020.9 |
| 20260831121146 | 66 | 150 | 0.0 | 0.0 | 0.00 | 0.03 | 0.00 | 86 | 1020.9 |
| 20260831120639 | 66 | 150 | 0.0 | 0.0 | 0.00 | 0.03 | 0.00 | 86 | 1020.9 |
| 20260831120132 | 66 | 150 | 0.0 | 0.0 | 0.00 | 0.03 | 0.00 | 85 | 1020.8 |
| 20260831115620 | 66 | 150 | 0.0 | 0.0 | 0.00 | 0.03 | 0.00 | 86 | 1020.8 |
| 20260831115129 | 65 | 150 | 0.0 | 0.0 | 0.00 | 0.03 | 0.00 | 86 | 1020.7 |
| 20260831114635 | 65 | 150 | 0.0 | 0.0 | 0.00 | 0.03 | 0.00 | 86 | 1020.6 |
| 20260831114120 | 65 | 150 | 0.0 | 0.0 | 0.00 | 0.03 | 0.00 | 86 | 1020.7 |
| 20260831113654 | 65 | 150 | 0.0 | 0.0 | 0.00 | 0.03 | 0.00 | 86 | 1020.7 |
| 20260831113120 | 65 | 150 | 0.0 | 0.0 | 0.00 | 0.03 | 0.00 | 85 | 1020.7 |
| 20260831112637 | 65 | 150 | 0.0 | 0.0 | 0.00 | 0.03 | 0.00 | 85 | 1020.8 |
| 20260831112123 | 65 | 150 | 0.0 | 0.0 | 0.00 | 0.03 | 0.00 | 85 | 1020.7 |
| 20260831111617 | 65 | 149 | 0.0 | 0.0 | 0.00 | 0.03 | 0.00 | 85 | 1020.7 |
| 20260831111133 | 65 | 149 | 0.0 | 0.0 | 0.00 | 0.03 | 0.00 | 85 | 1020.6 |
| 20260831110619 | 65 | 149 | 0.0 | 0.0 | 0.00 | 0.03 | 0.00 | 85 | 1020.7 |
| 20260831110134 | 65 | 149 | 0.0 | 0.0 | 0.00 | 0.03 | 0.00 | 85 | 1020.7 |
| 20260831105624 | 65 | 149 | 0.0 | 0.0 | 0.00 | 0.03 | 0.00 | 85 | 1020.5 |
| 20260831105119 | 64 | 149 | 0.0 | 0.0 | 0.00 | 0.03 | 0.00 | 85 | 1020.5 |